This demonstration page uses our WeatherBlox Daily Observations layout. Learn more.

40.92945, -100.16068

Hourly Observations for January 28, 2015

Temp ( °F °C ) Dew Point ( °F °C ) Humidity (%) Winds ( mph kmh ) Pressure ( in mb ) Visibility ( mi km ) Precip ( " mm )
12:15 am 00:15 Clear 32 -0.1 27 -2.9 82 82 Calm 30 1016 10 16.0934 N/A
12:35 am 00:35 Clear 31 -0.7 27 -3 85 85 Calm 30 1016 10 16.0934 N/A
12:55 am 00:55 Clear 31 -0.7 26 -3.1 84 84 Calm 30 1016 10 16.0934 N/A
1:15 am 01:15 Clear 30 -1 26 -3.2 85 85 Calm 30 1016 10 16.0934 N/A
1:35 am 01:35 Clear 30 -1.1 26 -3.1 86 86 Calm 29.97 1015 10 16.0934 N/A
1:55 am 01:55 Clear 30 -1.2 26 -3.2 86 86 Calm 29.97 1015 10 16.0934 N/A
2:15 am 02:15 Clear 29 -1.8 26 -3.5 88 88 W 7 11 29.97 1015 10 16.0934 N/A
2:35 am 02:35 Clear 29 -1.6 27 -3 90 90 WNW 7 11 29.97 1015 10 16.0934 N/A
2:55 am 02:55 Clear 30 -1.2 27 -2.7 90 90 WNW 9 15 29.97 1015 10 16.0934 N/A
3:15 am 03:15 Clear 30 -1.1 27 -2.6 90 90 WNW 8 13 29.97 1015 10 16.0934 N/A
3:35 am 03:35 Clear 30 -1 27 -2.7 88 88 W 8 13 29.91 1013 10 16.0934 N/A
3:55 am 03:55 Clear 30 -1.3 27 -3 88 88 W 8 13 29.91 1013 10 16.0934 N/A
4:15 am 04:15 Clear 29 -1.7 26 -3.3 89 89 W 6 9 29.94 1014 10 16.0934 N/A
4:35 am 04:35 Clear 29 -1.5 27 -3 90 90 W 5 7 29.91 1013 10 16.0934 N/A
4:55 am 04:55 Clear 31 -0.4 29 -1.7 91 91 WNW 12 19 29.91 1013 10 16.0934 N/A
5:15 am 05:15 Clear 33 0.5 29 -1.7 85 85 WNW 8 13 29.91 1013 10 16.0934 N/A
5:35 am 05:35 Clear 33 0.6 29 -1.6 85 85 WNW 9 15 29.91 1013 10 16.0934 N/A
5:55 am 05:55 Clear 32 0 29 -1.8 88 88 WNW 7 11 29.91 1013 10 16.0934 N/A
6:15 am 06:15 Clear 34 1 30 -1.1 86 86 WNW 10 17 29.88 1012 10 16.0934 N/A
6:35 am 06:35 Clear 33 0.8 29 -1.5 85 85 WNW 13 20 29.91 1013 10 16.0934 N/A
6:55 am 06:55 Clear 34 1 29 -1.4 84 84 WNW 13 20 29.91 1013 10 16.0934 N/A
7:15 am 07:15 Clear 34 1.2 30 -1.2 84 84 WNW 14 22 29.91 1013 10 16.0934 N/A
7:35 am 07:35 Clear 37 2.6 31 -0.5 80 80 WNW 14 22 29.88 1012 10 16.0934 N/A
7:55 am 07:55 Sunny 38 3.6 32 0 78 78 WNW 15 24 29.88 1012 10 16.0934 N/A
8:15 am 08:15 Sunny 38 3.5 32 -0.1 78 78 WNW 13 20 29.88 1012 10 16.0934 N/A
8:35 am 08:35 Sunny 39 4.1 32 0.1 75 75 WNW 12 19 29.88 1012 10 16.0934 N/A
8:55 am 08:55 Sunny 41 5 33 0.6 73 73 WNW 15 24 29.88 1012 10 16.0934 N/A
9:15 am 09:15 Sunny 42 5.8 34 1 72 72 WNW 14 22 29.85 1011 10 16.0934 N/A
9:35 am 09:35 Sunny 45 7.2 34 1.2 66 66 WNW 14 22 29.85 1011 10 16.0934 N/A
9:55 am 09:55 Sunny 46 7.7 35 1.5 65 65 WNW 9 15 29.85 1011 10 16.0934 N/A
10:15 am 10:15 Sunny 48 9.1 35 1.6 60 60 WNW 10 17 29.83 1010 10 16.0934 N/A
10:35 am 10:35 Sunny 51 10.7 36 2 55 55 WNW 14 22 29.83 1010 10 16.0934 N/A
10:55 am 10:55 Sunny 53 11.8 36 2 51 51 WNW 16 26 29.8 1009 10 16.0934 N/A
11:15 am 11:15 Sunny 56 13.4 35 1.8 46 46 WNW 17 28 29.8 1009 10 16.0934 N/A
11:35 am 11:35 Sunny 59 15.1 35 1.6 40 40 WNW 22 35 29.77 1008 10 16.0934 N/A
11:55 am 11:55 Sunny 60 15.7 34 1.2 38 38 WNW 18 30 29.74 1007 10 16.0934 N/A
12:15 pm 12:15 Sunny 61 16.1 35 1.5 37 37 WNW 20 31 29.74 1007 10 16.0934 N/A
12:35 pm 12:35 Sunny 63 17.3 34 1.2 34 34 WNW 17 28 29.71 1006 10 16.0934 N/A
12:55 pm 12:55 Sunny 66 19 33 0.5 29 29 NW 26 43 29.68 1005 10 16.0934 0.03 0.762
1:15 pm 13:15 Sunny 67 19.5 32 0.2 28 28 NW 25 41 29.68 1005 10 16.0934 N/A
1:35 pm 13:35 Sunny 67 19.7 32 0.2 27 27 NW 28 44 29.68 1005 10 16.0934 N/A
1:55 pm 13:55 Sunny 68 19.9 33 0.5 27 27 NW 24 39 29.68 1005 10 16.0934 N/A
2:15 pm 14:15 Sunny 68 20 33 0.8 28 28 NW 25 41 29.68 1005 10 16.0934 N/A
2:35 pm 14:35 Sunny 68 20 33 0.5 27 27 NW 25 41 29.68 1005 10 16.0934 N/A
2:55 pm 14:55 Sunny 67 19.6 33 0.3 28 28 NW 25 41 29.68 1005 10 16.0934 0 0
3:15 pm 15:15 Sunny 68 19.9 32 0 26 26 NW 24 39 29.68 1005 10 16.0934 N/A
3:35 pm 15:35 Sunny 68 19.9 32 0.1 27 27 NW 26 43 29.71 1006 10 16.0934 N/A
3:55 pm 15:55 Sunny 67 19.2 32 -0.1 27 27 NW 26 43 29.71 1006 10 16.0934 N/A
4:15 pm 16:15 Sunny 65 18.6 32 0 29 29 NW 25 41 29.71 1006 10 16.0934 N/A
4:35 pm 16:35 Sunny 64 18 31 -0.6 29 29 NW 24 39 29.77 1008 10 16.0934 N/A
4:55 pm 16:55 Sunny 61 16.3 31 -0.5 32 32 NNW 22 35 29.8 1009 10 16.0934 N/A
5:15 pm 17:15 Sunny 61 16 30 -1.3 31 31 NNW 21 33 29.8 1009 10 16.0934 N/A
5:35 pm 17:35 Sunny 60 15.6 29 -1.7 31 31 NNW 21 33 29.83 1010 10 16.0934 N/A
5:55 pm 17:55 Clear 58 14.3 27 -2.9 31 31 NNW 17 28 29.85 1011 10 16.0934 0 0
6:15 pm 18:15 Clear 55 12.8 27 -2.8 34 34 NNW 22 35 29.88 1012 10 16.0934 N/A
6:35 pm 18:35 Clear 55 12.5 27 -2.7 35 35 NW 20 31 29.88 1012 10 16.0934 N/A
6:55 pm 18:55 Clear 56 13.2 31 -0.7 39 39 NNW 24 39 29.91 1013 10 16.0934 N/A
7:15 pm 19:15 Partly Cloudy 54 12.2 32 0 43 43 NW 21 33 29.94 1014 10 16.0934 N/A
7:35 pm 19:35 Partly Cloudy 53 11.7 32 0 45 45 NW 20 31 29.97 1015 10 16.0934 N/A
7:55 pm 19:55 Mostly Cloudy 53 11.9 32 0 44 44 NW 16 26 29.97 1015 10 16.0934 N/A
8:15 pm 20:15 Mostly Cloudy 51 10.4 32 -0.2 48 48 NW 13 20 29.97 1015 10 16.0934 N/A
8:35 pm 20:35 Clear 49 9.5 32 -0.2 51 51 WNW 12 19 30 1016 10 16.0934 N/A
8:55 pm 20:55 Clear 50 9.8 32 -0.2 50 50 NW 15 24 30 1016 10 16.0934 N/A
9:15 pm 21:15 Clear 46 7.6 32 -0.1 59 59 WNW 12 19 30.06 1018 10 16.0934 N/A
9:35 pm 21:35 Clear 43 6.2 32 0.1 65 65 WNW 13 20 30.09 1019 10 16.0934 N/A
9:55 pm 21:55 Clear 43 6 33 0.5 68 68 WNW 15 24 30.09 1019 10 16.0934 N/A
10:15 pm 22:15 Clear 44 6.9 33 0.7 65 65 NW 14 22 30.09 1019 10 16.0934 N/A
10:35 pm 22:35 Clear 45 7.4 33 0.8 63 63 NW 20 31 30.12 1020 10 16.0934 N/A
10:55 pm 22:55 Clear 46 7.7 33 0.3 60 60 NNW 22 35 30.09 1019 10 16.0934 N/A
11:15 pm 23:15 Clear 45 7.1 33 0.4 63 63 NNW 18 30 30.15 1021 10 16.0934 N/A
11:35 pm 23:35 Partly Cloudy 43 6.2 33 0.5 67 67 NNW 30 48 30.18 1022 10 16.0934 N/A
11:55 pm 23:55 Cloudy 42 5.6 33 0.3 69 69 N 32 52 30.21 1023 10 16.0934 N/A

Powered by AerisWeather